Lapse_Rate
7.7 7.1 7.0 6.7 6.5 6.3 6.1 6.1 6.3 6.2 6.1 5.9 5.9 6.0 5.8 5.9 5.8 5.8 5.9 5.9 6.1 6.2 6.1 6.1 6.0 6.0 5.9 6.0 6.1 6.0 5.9 5.9 5.9 5.9 5.9 5.9 5.8 5.7 5.7 5.8 5.9 6.0 6.0
7.5 7.2 6.8 6.5 6.2 6.2 6.3 6.3 6.2 6.2 6.0 6.2 6.0 6.3 6.0 6.0 6.0 6.0 6.0 6.0 6.2 6.4 6.4 6.4 6.3 6.1 6.2 6.1 6.0 6.0 5.9 5.9 5.9 5.9 5.8 5.6 5.7 5.9 5.9 5.9 5.8 6.0 6.2
7.6 7.3 6.8 6.5 6.4 6.4 6.2 6.0 6.1 6.0 5.9 6.1 6.2 6.3 6.2 6.1 6.2 6.1 6.0 6.3 6.3 6.5 6.4 6.4 6.3 6.2 6.1 6.2 6.2 6.1 6.0 5.8 5.8 5.9 5.9 6.0 6.0 5.9 5.9 5.9 5.9 6.0 5.8
7.6 7.3 7.1 6.5 6.1 6.1 6.0 6.1 6.1 5.9 5.8 6.0 6.3 6.3 6.2 6.2 6.1 6.1 6.3 6.5 6.5 6.6 6.6 6.5 6.3 6.2 6.2 6.2 6.0 5.9 5.9 5.8 5.8 5.9 5.9 5.9 6.0 6.0 6.0 5.9 5.8 5.7 5.8
7.6 7.2 6.9 6.4 6.2 6.2 6.0 6.0 5.9 5.9 5.7 6.1 6.3 6.3 6.1 6.1 6.3 6.4 6.7 6.5 6.5 6.7 6.7 6.5 6.3 6.2 6.2 6.0 5.9 5.9 5.9 5.9 5.9 5.9 6.1 6.1 6.1 6.1 6.0 5.9 5.8 5.8 5.8
7.5 6.9 6.4 6.3 6.2 5.8 5.8 5.8 5.7 5.8 5.8 6.1 6.4 6.1 5.8 6.1 6.4 6.8 6.9 6.7 6.7 6.7 6.7 6.5 6.3 6.2 6.0 5.9 5.8 5.9 5.9 5.9 5.8 5.9 6.1 6.1 6.1 6.1 6.2 6.2 6.3 6.1 6.0
7.3 6.9 6.6 6.4 6.1 5.7 5.6 5.5 5.6 5.4 5.7 5.9 5.8 5.7 5.8 6.1 6.3 7.2 7.3 7.0 6.8 6.8 6.6 6.5 6.2 6.0 5.9 5.7 5.8 6.0 5.8 5.8 5.8 6.0 6.1 6.0 6.0 5.9 5.9 5.9 6.1 6.1 6.1
6.8 6.5 6.3 6.0 5.8 5.9 5.6 5.2 5.3 5.3 5.5 5.6 5.7 5.6 5.8 6.0 7.1 7.5 7.1 7.0 6.8 6.7 6.5 6.3 6.1 6.0 5.8 5.8 5.8 5.8 5.9 5.9 5.9 6.1 6.1 6.0 5.9 5.9 6.0 5.9 5.9 5.8 5.9
6.6 6.2 5.9 5.9 5.9 6.0 5.4 4.8 5.1 5.1 4.9 5.6 5.8 5.9 6.0 6.6 7.6 7.4 7.6 7.1 6.8 6.7 6.4 6.2 6.0 5.9 5.8 5.8 5.9 6.0 6.2 6.2 6.1 6.0 6.0 5.9 5.7 5.8 5.9 6.1 6.1 6.2 6.2
6.0 6.2 5.9 6.0 6.1 5.5 5.5 4.3 4.4 4.7 4.9 6.0 5.8 6.0 6.3 7.5 7.5 7.1 7.4 7.1 6.7 6.3 6.1 6.0 5.8 5.7 5.8 5.8 5.8 5.7 5.7 5.7 5.8 5.8 5.9 5.8 5.9 6.0 6.1 6.1 6.1 6.2 6.1
6.2 6.2 6.2 6.0 5.7 4.8 5.0 4.5 4.4 4.3 5.6 5.6 5.9 6.3 6.7 7.1 7.3 7.2 7.1 6.8 6.1 6.1 6.0 5.8 5.8 5.9 5.8 5.7 5.6 5.5 5.5 5.6 5.5 5.6 5.6 5.5 5.5 5.9 6.1 6.2 6.2 6.2 6.2
6.0 6.1 5.8 5.1 4.8 5.1 4.3 4.5 4.2 5.1 5.4 5.4 5.8 6.2 6.8 7.6 7.4 6.9 6.6 6.3 6.1 6.0 5.8 5.7 5.8 5.7 5.6 5.5 5.5 5.4 5.5 5.6 5.6 5.5 5.5 5.5 5.6 5.7 6.0 6.0 6.2 6.3 6.4
6.2 5.9 5.5 5.4 5.2 5.1 4.5 4.5 5.1 4.9 5.1 5.7 6.2 6.7 7.3 6.9 6.8 6.6 6.4 6.2 6.2 6.0 5.8 5.5 5.6 5.5 5.5 5.6 5.4 5.4 5.5 5.5 5.5 5.4 5.5 5.6 5.6 5.7 5.9 6.0 6.1 6.2 6.5
5.9 5.6 5.6 4.8 4.8 4.6 4.6 4.6 4.9 5.1 5.6 6.3 6.7 6.7 6.6 6.7 6.5 6.3 6.3 6.3 5.9 5.8 5.7 5.7 5.5 5.4 5.4 5.3 5.3 5.3 5.3 5.4 5.4 5.4 5.5 5.7 5.8 5.7 5.6 5.7 5.8 6.0 6.1
5.2 5.3 5.5 4.9 4.6 5.0 4.7 5.1 5.1 5.2 6.4 6.7 6.8 6.7 6.6 6.5 6.3 6.2 6.1 6.0 5.9 5.8 5.5 5.3 5.3 5.2 5.2 5.2 5.2 5.3 5.3 5.3 5.3 5.4 5.5 5.7 5.7 5.8 5.7 5.7 5.8 5.9 6.0
5.0 5.1 4.8 5.0 4.8 5.3 5.4 5.5 6.0 6.7 7.0 7.0 6.7 6.6 6.5 6.5 6.2 6.1 5.9 5.7 5.6 5.4 5.2 5.1 5.0 4.9 5.0 5.1 5.1 5.2 5.3 5.3 5.5 5.6 5.7 5.8 5.9 5.9 5.9 5.9 5.7 5.7 5.8
5.2 5.3 5.4 5.6 5.6 5.2 5.4 6.3 6.3 7.1 6.7 6.4 6.4 6.3 6.2 6.1 6.0 5.7 5.7 5.6 5.3 5.3 5.1 4.9 4.8 4.8 4.9 5.0 5.1 5.2 5.3 5.4 5.5 5.7 5.9 6.0 6.1 6.2 6.1 6.0 5.9 5.8 5.9
5.5 5.5 5.6 6.0 6.0 6.0 6.6 6.6 6.8 6.6 6.5 6.3 6.2 6.0 6.2 6.1 5.9 5.7 5.6 5.5 5.4 5.3 5.0 4.7 4.7 4.8 4.9 5.0 5.1 5.2 5.3 5.5 5.7 5.9 6.2 6.3 6.2 6.2 6.1 6.0 6.0 6.0 6.0
6.3 6.7 6.5 6.6 6.7 6.7 6.6 6.6 6.4 6.4 6.5 6.3 6.1 6.2 6.1 5.9 5.9 5.7 5.7 5.5 5.4 5.2 5.0 4.8 4.7 4.8 4.9 5.2 5.4 5.4 5.5 5.8 6.0 6.3 6.2 6.2 6.1 6.0 6.0 6.0 6.0 6.0 6.0
6.9 6.7 7.0 7.1 7.1 6.7 6.5 6.4 6.3 6.3 6.2 6.1 6.1 6.1 6.1 6.1 5.9 5.8 5.6 5.5 5.4 5.2 5.0 4.8 4.8 4.9 5.1 5.3 5.5 5.6 5.9 6.1 6.2 6.3 6.3 6.2 6.1 6.0 6.0 5.9 5.9 5.8 5.9
7.0 6.9 6.8 6.8 6.7 6.5 6.3 6.1 6.2 6.1 6.3 6.2 6.1 6.2 6.2 6.1 6.0 5.7 5.6 5.5 5.3 5.2 5.1 5.0 5.0 5.2 5.5 5.7 5.9 6.0 6.1 6.1 6.1 6.1 6.2 6.1 6.2 6.1 6.1 6.1 6.1 6.1 6.1
7.3 7.1 7.0 6.8 6.7 6.5 6.4 6.3 6.4 6.4 6.4 6.3 6.2 6.3 6.2 6.2 5.9 5.6 5.6 5.5 5.3 5.1 5.0 5.0 5.1 5.4 5.5 5.7 5.4 5.8 6.1 6.2 6.2 6.3 6.1 6.0 6.0 6.0 6.0 6.0 6.0 6.1 6.2
7.4 7.4 7.2 6.9 6.8 6.9 6.9 6.8 6.7 6.6 6.4 6.3 6.2 6.2 6.2 6.1 5.9 5.7 5.5 5.3 5.1 5.1 5.2 5.0 5.1 5.4 5.5 5.5 6.1 6.3 6.0 5.9 5.7 5.8 5.8 5.8 5.7 5.7 5.8 5.8 5.9 6.0 6.1
7.4 7.2 7.1 7.1 7.0 7.0 7.2 7.0 6.7 6.4 6.3 6.1 6.2 6.3 6.2 6.0 5.8 5.6 5.4 5.2 4.9 4.9 5.0 5.1 5.2 5.2 5.8 5.9 6.2 5.9 5.9 5.6 5.5 5.4 5.5 5.7 5.4 5.5 5.6 5.7 5.9 6.0 6.0
7.3 7.2 7.1 7.1 7.1 7.0 7.2 7.1 6.8 6.5 6.2 6.1 6.2 6.2 6.2 6.0 5.8 5.6 5.4 5.3 5.2 5.1 5.2 4.8 4.8 5.3 5.9 5.9 5.8 5.7 5.6 5.6 5.3 5.3 5.5 5.4 5.3 5.5 5.5 5.6 5.8 5.8 5.8
7.4 7.2 7.0 6.9 6.9 7.0 7.1 7.1 6.9 6.6 6.2 6.1 6.2 6.3 6.2 6.1 5.8 5.6 5.5 5.5 5.2 5.2 5.2 5.2 5.4 5.9 5.7 5.5 5.5 5.5 5.5 5.2 5.2 5.3 5.2 5.2 5.2 5.4 5.7 5.8 5.8 5.7 5.6
Wind_Speed
17 25 22 21 22 26 28 29 28 28 27 25 24 23 22 22 22 20 21 21 20 20 21 20 19 20 20 20 18 18 20 21 20 20 21 20 21 21 21 20 19 22 22
18 27 23 22 22 23 26 27 26 26 25 24 23 24 22 21 21 20 20 20 20 21 20 19 17 18 19 19 18 19 20 20 19 18 18 20 19 20 20 21 21 21 23
20 28 27 23 23 24 26 27 26 25 24 24 24 24 21 21 20 20 20 20 19 20 18 17 16 17 18 18 19 19 19 18 16 16 14 18 19 20 21 20 21 21 21
23 28 27 25 25 25 26 26 26 25 24 23 23 23 20 21 20 19 20 20 19 20 18 17 16 19 20 18 18 19 19 17 16 14 16 16 18 19 19 20 20 18 18
22 27 27 26 27 27 27 27 25 24 24 22 24 23 20 21 20 19 21 20 20 20 20 18 19 22 20 19 19 18 18 17 17 16 15 14 15 17 18 18 17 18 18
18 27 28 27 27 27 27 26 25 24 23 22 24 21 20 22 22 18 21 20 18 19 20 19 21 21 20 20 19 19 18 18 14 15 15 14 15 16 17 17 18 18 17
15 25 27 27 28 28 28 28 28 26 24 24 23 20 20 21 20 19 20 18 17 18 20 19 19 19 21 19 20 20 19 16 13 13 12 12 13 13 15 16 16 16 16
10 21 23 28 31 28 28 26 26 25 24 23 24 20 20 19 19 19 17 17 15 16 17 18 19 19 20 20 20 19 17 13 11 11 10 10 11 11 13 13 14 14 15
12 14 10 18 25 24 26 24 26 25 24 23 25 20 19 19 19 19 18 17 17 15 15 18 19 19 19 19 19 17 15 13 9 10 9 8 8 9 10 12 11 12 14
9 14 15 14 11 7 22 24 23 24 24 27 23 21 21 20 19 18 19 17 18 17 20 19 20 24 21 20 19 17 13 11 9 8 7 8 6 6 8 10 9 11 12
10 9 17 19 22 14 15 22 20 20 25 25 22 21 18 14 14 14 15 16 19 21 20 19 21 24 25 23 18 17 13 9 7 7 7 10 10 5 6 7 8 9 10
8 12 14 20 19 19 7 13 11 14 16 17 17 15 13 14 14 13 14 18 21 23 22 21 21 20 17 13 12 12 11 10 10 8 8 10 9 4 4 6 7 8 10
11 11 14 12 15 15 10 11 8 10 13 15 15 14 13 13 12 10 11 12 13 15 15 15 16 14 14 13 11 10 10 10 7 7 8 11 10 7 2 5 6 8 9
13 21 14 10 6 4 9 10 11 8 11 12 14 13 12 10 10 9 11 11 11 11 14 13 14 15 15 14 12 12 11 10 8 7 7 12 10 8 3 5 5 7 7
10 18 10 10 7 6 10 9 9 11 12 12 12 10 9 10 10 11 11 12 11 12 12 12 12 12 13 12 12 11 10 11 10 9 8 13 12 7 3 3 4 4 5
12 16 13 10 9 7 7 8 10 10 11 11 9 8 10 13 13 12 13 12 12 12 11 12 11 10 11 11 11 10 9 9 9 9 8 9 14 16 13 6 2 2 2
15 18 16 12 7 7 9 12 10 11 9 8 9 11 13 15 15 14 13 11 12 13 14 13 11 10 9 9 9 7 7 7 8 10 10 8 7 13 13 10 5 2 2
17 17 14 7 6 7 9 9 9 9 9 9 9 11 13 15 16 14 12 11 12 12 11 10 8 5 5 4 5 5 4 4 6 7 7 7 9 8 7 11 10 7 6
18 17 13 9 9 9 8 8 8 10 9 8 9 12 14 15 15 14 13 12 12 10 8 7 4 4 4 3 3 3 1 3 3 4 5 5 7 6 4 6 9 9 11
14 12 10 8 9 8 8 8 7 6 7 7 7 10 15 14 14 15 13 12 11 9 6 5 5 4 3 2 1 1 2 4 2 1 2 1 4 2 3 6 9 9 8
12 12 11 10 10 10 8 7 5 5 5 5 8 11 12 14 14 14 12 11 9 6 6 6 4 3 2 0 2 3 3 4 5 3 3 3 3 2 3 6 9 9 9
16 14 12 13 14 12 9 7 4 6 4 5 9 11 11 13 14 13 13 10 10 7 6 4 3 2 2 2 2 2 2 3 6 7 6 6 4 3 5 7 8 8 10
17 16 14 15 15 13 11 8 6 7 6 4 6 5 11 12 13 13 11 10 9 7 5 5 4 5 3 3 3 2 2 3 5 2 4 5 4 4 6 8 8 12 11
17 13 13 12 13 12 12 10 12 9 8 5 6 5 9 11 11 11 11 11 8 6 5 4 5 3 3 2 3 4 4 4 4 5 2 3 4 6 7 9 11 11 10
13 12 12 13 13 13 13 11 9 8 4 5 5 9 8 10 12 13 13 12 11 8 7 6 5 3 2 3 3 2 3 4 5 6 9 6 5 6 9 10 11 10 8
11 11 12 13 13 13 13 13 13 11 9 6 8 8 8 8 10 13 12 11 10 11 5 5 5 5 3 3 3 3 4 4 4 5 7 9 9 8 7 7 9 8 4
Wind_Direction
156 154 149 142 135 128 124 122 121 121 121 119 117 112 109 108 107 107 108 106 105 106 104 103 106 108 107 107 102 91 89 89 85 82 79 74 70 67 64 58 58 61 59
147 151 147 142 136 128 122 119 120 119 121 120 116 112 111 111 113 115 110 106 105 104 105 108 111 112 113 109 104 98 94 89 85 83 87 83 74 71 66 62 55 57 53
146 149 148 142 135 132 126 124 123 123 122 122 120 116 117 115 114 113 110 108 108 107 105 105 114 123 122 113 103 101 97 92 90 89 85 80 75 69 66 62 58 55 53
146 148 149 144 143 137 131 129 129 129 126 123 121 115 118 114 114 112 110 108 107 101 103 109 115 135 133 117 107 104 102 101 95 89 82 81 77 72 68 64 61 57 55
143 146 149 146 145 140 137 136 134 130 123 126 117 118 120 117 115 109 107 106 105 103 106 105 105 124 123 112 107 105 104 101 95 92 84 77 74 70 68 63 61 56 51
140 148 152 149 144 141 138 131 125 121 121 122 115 120 121 115 113 108 106 106 103 99 97 97 101 110 113 111 108 104 102 98 92 82 80 74 69 67 67 65 60 52 49
144 154 156 148 142 143 137 133 126 125 126 120 117 120 115 113 110 104 105 104 101 95 95 98 100 108 111 111 109 106 105 94 90 86 80 71 69 66 62 59 57 54 49
139 155 155 151 148 145 134 129 125 124 117 117 112 111 111 111 108 105 105 102 98 93 94 97 101 113 116 114 109 106 101 94 91 83 76 73 69 66 66 61 54 49 49
124 122 99 142 139 140 125 122 119 117 118 118 110 115 114 113 111 111 108 106 102 100 104 94 88 96 107 102 100 98 92 86 84 75 68 56 70 66 69 63 56 51 49
114 99 102 86 56 112 128 110 115 118 121 109 115 123 122 119 115 111 107 103 101 100 100 100 91 87 91 90 89 94 84 71 75 79 61 37 48 70 72 68 57 54 55
98 96 98 94 87 42 71 97 100 110 106 115 122 127 121 120 116 105 105 100 98 100 100 100 91 89 87 78 75 73 69 60 64 55 46 20 28 76 83 81 68 60 60
108 124 118 123 124 127 113 96 106 118 127 126 133 133 131 129 119 120 108 105 99 103 99 95 91 88 92 93 79 65 71 64 59 46 39 21 12 39 97 99 77 70 64
113 115 125 146 140 141 135 131 121 140 139 131 134 140 131 127 125 123 124 112 115 106 104 99 92 87 89 87 83 75 62 60 48 42 23 13 3 345 137 114 82 75 65
116 118 118 130 145 140 139 135 135 140 132 139 146 146 140 131 135 135 120 118 116 109 102 99 96 94 86 84 80 72 62 52 35 33 18 6 358 344 143 136 105 89 74
125 140 158 159 139 157 140 129 144 147 140 153 154 159 148 138 121 114 117 121 119 110 108 105 100 95 92 83 73 66 62 56 43 32 25 32 33 21 6 144 122 108 90
132 146 152 151 180 146 142 153 150 144 155 164 168 164 139 123 126 129 128 125 118 114 107 100 99 94 83 80 69 60 60 59 53 46 46 54 48 48 44 62 86 115 98
164 160 167 176 166 174 167 157 157 153 161 175 164 152 138 132 138 139 132 126 122 114 109 101 97 100 92 86 75 74 78 70 63 51 45 46 49 50 42 40 26 18 351
169 183 192 206 188 174 170 161 155 160 153 162 157 151 149 152 148 141 133 131 128 119 115 117 109 94 94 89 72 69 91 100 70 54 45 46 44 27 27 23 18 4 331
173 182 196 189 186 175 161 149 155 161 151 161 161 160 152 148 148 140 136 136 135 126 121 115 103 98 90 87 81 57 114 154 82 75 78 75 38 10 5 22 9 357 357
190 193 192 179 165 149 149 141 140 144 147 156 158 158 154 149 147 138 141 142 138 122 121 121 113 98 96 57 275 296 218 206 188 143 134 128 17 17 7 351 337 317 331
201 199 192 180 169 160 158 157 166 166 159 157 164 161 152 152 151 148 142 142 138 142 138 137 129 124 136 77 264 269 216 216 228 245 239 264 321 258 316 327 318 308 305
213 207 192 193 178 182 179 169 167 159 165 160 166 160 160 154 152 153 153 151 155 141 146 142 132 145 157 177 305 294 308 219 230 240 247 255 274 263 294 317 307 308 301
210 202 198 192 183 183 177 145 116 109 114 152 165 161 175 159 160 159 152 150 153 153 152 149 171 191 170 183 227 304 290 295 317 229 226 241 260 268 294 310 304 305 295
211 202 201 189 182 180 173 171 171 174 168 187 182 158 163 166 159 152 151 156 148 149 160 171 184 186 165 228 211 227 252 286 297 303 239 266 253 268 277 300 312 310 299
201 192 190 183 184 180 180 183 172 172 170 167 159 154 155 160 160 163 165 158 163 162 151 153 164 164 185 239 242 247 251 255 261 275 294 288 269 276 283 288 312 311 299
186 182 182 183 189 184 180 188 186 176 179 184 174 170 170 171 170 173 161 162 156 139 144 157 160 183 181 218 233 231 256 273 282 279 287 296 294 297 284 273 279 304 280